Change the Weather History Date:

Wednesday, April 30, 2014

  Actual Average Record
Temperature  
Mean Temperature 58 °F -  
Max Temperature 64 °F 65 °F 84 °F (1942)
Min Temperature 51 °F 44 °F 28 °F (1931)
Degree Days  
Heating Degree Days 8    
Growing Degree Days 8 (Base 50)    
Moisture  
Dew Point 52 °F    
Average Humidity 88    
Maximum Humidity 100    
Minimum Humidity 72    
Precipitation  
Precipitation 0.00 in - - ()
Sea Level Pressure  
Sea Level Pressure 29.77 in    
Wind  
Wind Speed 10 mph (SE)    
Max Wind Speed 16 mph    
Max Gust Speed 22 mph    
Visibility 10 miles    
Events Rain    
Averages and records for this station are not official NWS values.
T = Trace of Precipitation, MM = Missing Value Source: NWS Daily Summary

Daily Weather History Graph

Daily Weather History Graph

Search for Another Location

Airport or City:

Trip Planner

Search our weather history database for the weather conditions in past years. The results will help you decide how hot, cold, wet, or windy it might be!

Date:

Astronomy

Apr. 30, 2014 Rise Set
Actual Time 6:31 AM EDT 8:31 PM EDT
Civil Twilight 6:00 AM EDT 9:01 PM EDT
Nautical Twilight 5:23 AM EDT 9:38 PM EDT
Astronomical Twilight 4:43 AM EDT 10:19 PM EDT
Moon 7:31 AM EDT (4/30) 10:10 PM EDT (4/30)
Length of Visible Light 15h 00m
Length of Day
14h 00m
New Moon, 2% of the Moon is Illuminated
Apr 30
New Moon
May 6
First Quarter
May 14
Full
May 21
Last Quarter
May 28
New

Hourly Weather History & Observations

Time (EDT) Temp. Dew Point Humidity Pressure Visibility Wind Dir Wind Speed Gust Speed Precip Events Conditions
12:14 AM 55.4 °F 53.6 °F 94% 29.82 in 10.0 mi SE 10.4 mph 19.6 mph N/A Rain Light Rain
12:34 AM 55.4 °F 53.6 °F 94% 29.82 in 10.0 mi SSE 10.4 mph 18.4 mph N/A Rain Light Rain
12:54 AM 55.4 °F 51.8 °F 88% 29.83 in 10.0 mi SE 16.1 mph 19.6 mph N/A Rain Light Rain
1:14 AM 55.4 °F 51.8 °F 88% 29.83 in 10.0 mi SSE 13.8 mph 21.9 mph N/A Rain Light Rain
1:34 AM 55.4 °F 51.8 °F 88% 29.79 in 10.0 mi SE 15.0 mph 21.9 mph N/A Rain Light Rain
1:54 AM 55.4 °F 51.8 °F 88% 29.79 in 10.0 mi SE 15.0 mph 21.9 mph N/A Rain Rain
2:14 AM 53.6 °F 51.8 °F 94% 29.79 in 10.0 mi SSE 11.5 mph 21.9 mph N/A Rain Light Rain
2:34 AM 53.6 °F 51.8 °F 94% 29.79 in 10.0 mi SSE 10.4 mph 18.4 mph N/A   Scattered Clouds
2:54 AM 53.6 °F 51.8 °F 94% 29.78 in 10.0 mi SE 12.7 mph 19.6 mph N/A   Clear
3:14 AM 53.6 °F 51.8 °F 94% 29.79 in 10.0 mi SE 13.8 mph 20.7 mph N/A   Clear
3:34 AM 53.6 °F 51.8 °F 94% 29.79 in 10.0 mi SE 16.1 mph 19.6 mph N/A   Scattered Clouds
3:55 AM 53.6 °F 51.8 °F 94% 29.80 in 10.0 mi SSE 13.8 mph 17.3 mph N/A   Mostly Cloudy
4:15 AM 53.6 °F 51.8 °F 94% 29.79 in 10.0 mi SSE 10.4 mph - N/A   Mostly Cloudy
4:35 AM 53.6 °F 51.8 °F 94% 29.79 in 10.0 mi SSE 8.1 mph - N/A   Scattered Clouds
4:55 AM 53.6 °F 51.8 °F 94% 29.79 in 10.0 mi SSE 10.4 mph - N/A   Clear
5:15 AM 53.6 °F 51.8 °F 94% 29.80 in 10.0 mi SSE 10.4 mph - N/A   Mostly Cloudy
5:35 AM 53.6 °F 51.8 °F 94% 29.80 in 10.0 mi SE 6.9 mph - N/A   Overcast
5:55 AM 53.6 °F 51.8 °F 94% 29.80 in 10.0 mi SSE 9.2 mph - N/A   Overcast
6:15 AM 53.6 °F 51.8 °F 94% 29.80 in 10.0 mi SSE 6.9 mph - N/A   Overcast
6:35 AM 53.6 °F 51.8 °F 94% 29.80 in 10.0 mi SSE 5.8 mph - N/A   Overcast
6:56 AM 53.6 °F 51.8 °F 94% 29.81 in 10.0 mi SSE 9.2 mph - N/A   Overcast
7:16 AM 53.6 °F 51.8 °F 94% 29.81 in 10.0 mi SSE 8.1 mph - N/A   Overcast
7:36 AM 53.6 °F 51.8 °F 94% 29.81 in 10.0 mi SSE 6.9 mph - N/A   Overcast
7:56 AM 53.6 °F 51.8 °F 94% 29.81 in 10.0 mi SSE 6.9 mph - N/A   Overcast
8:16 AM 53.6 °F 51.8 °F 94% 29.81 in 10.0 mi SSE 9.2 mph - N/A   Overcast
8:36 AM 53.6 °F 51.8 °F 94% 29.80 in 10.0 mi SE 8.1 mph - N/A   Overcast
8:56 AM 55.4 °F 51.8 °F 88% 29.80 in 10.0 mi SE 8.1 mph - N/A   Overcast
9:11 AM 55.4 °F 51.8 °F 88% 29.80 in 10.0 mi SSE 8.1 mph - N/A   Overcast
9:31 AM 55.4 °F 51.8 °F 88% 29.80 in 10.0 mi SSE 8.1 mph - N/A   Overcast
9:51 AM 55.4 °F 51.8 °F 88% 29.80 in 10.0 mi SSE 5.8 mph - N/A   Overcast
10:11 AM 57.2 °F 53.6 °F 88% 29.80 in 10.0 mi SSE 6.9 mph - N/A   Overcast
10:32 AM 57.2 °F 53.6 °F 88% 29.80 in 10.0 mi SE 5.8 mph - N/A   Overcast
10:52 AM 57.2 °F 53.6 °F 88% 29.80 in 10.0 mi SSE 5.8 mph - N/A   Overcast
11:12 AM 60.8 °F 53.6 °F 77% 29.79 in 10.0 mi South 9.2 mph - N/A   Overcast
11:32 AM 60.8 °F 53.6 °F 77% 29.79 in 10.0 mi SSW 8.1 mph - N/A   Mostly Cloudy
11:52 AM 60.8 °F 53.6 °F 77% 29.78 in 10.0 mi SSE 3.5 mph - N/A   Scattered Clouds
12:12 PM 62.6 °F 55.4 °F 77% 29.78 in 10.0 mi SSE 8.1 mph - N/A   Mostly Cloudy
12:32 PM 60.8 °F 53.6 °F 77% 29.77 in 10.0 mi SE 6.9 mph - N/A   Mostly Cloudy
12:52 PM 62.6 °F 55.4 °F 77% 29.76 in 10.0 mi SE 6.9 mph - N/A   Scattered Clouds
1:12 PM 62.6 °F 55.4 °F 77% 29.76 in 10.0 mi SSE 9.2 mph - N/A   Scattered Clouds
1:33 PM 64.4 °F 55.4 °F 73% 29.76 in 10.0 mi ESE 10.4 mph - N/A   Scattered Clouds
1:53 PM 64.4 °F 55.4 °F 73% 29.75 in 10.0 mi ESE 9.2 mph - N/A   Clear
2:13 PM 64.4 °F 55.4 °F 73% 29.75 in 10.0 mi East 10.4 mph - N/A   Clear
2:33 PM 64.4 °F 55.4 °F 73% 29.74 in 10.0 mi East 12.7 mph - N/A   Clear
2:53 PM 62.6 °F 53.6 °F 72% 29.74 in 10.0 mi East 10.4 mph - N/A   Clear
3:13 PM 62.6 °F 55.4 °F 77% 29.73 in 10.0 mi East 9.2 mph - N/A   Clear
3:33 PM 60.8 °F 53.6 °F 77% 29.73 in 10.0 mi ESE 9.2 mph 19.6 mph N/A   Clear
3:53 PM 60.8 °F 53.6 °F 77% 29.72 in 10.0 mi ESE 11.5 mph - N/A   Scattered Clouds
4:13 PM 60.8 °F 53.6 °F 77% 29.73 in 10.0 mi ESE 13.8 mph 19.6 mph N/A   Scattered Clouds
4:34 PM 59.0 °F 53.6 °F 82% 29.73 in 10.0 mi ESE 12.7 mph - N/A   Scattered Clouds
4:54 PM 57.2 °F 51.8 °F 82% 29.73 in 10.0 mi East 8.1 mph - N/A   Mostly Cloudy
5:14 PM 55.4 °F 51.8 °F 88% 29.74 in 10.0 mi ESE 10.4 mph - N/A   Overcast
5:34 PM 53.6 °F 51.8 °F 94% 29.73 in 10.0 mi ESE 9.2 mph - N/A   Overcast
5:54 PM 53.6 °F 51.8 °F 94% 29.73 in 10.0 mi East 12.7 mph - N/A   Overcast
6:14 PM 53.6 °F 51.8 °F 94% 29.73 in 10.0 mi ESE 9.2 mph - N/A   Overcast
6:34 PM 53.6 °F 51.8 °F 94% 29.72 in 10.0 mi ESE 6.9 mph - N/A   Overcast
6:54 PM 53.6 °F 51.8 °F 94% 29.72 in 7.0 mi ESE 6.9 mph - N/A   Overcast
7:14 PM 53.6 °F 51.8 °F 94% 29.71 in 10.0 mi ESE 6.9 mph - N/A   Overcast
7:34 PM 55.4 °F 51.8 °F 88% 29.72 in 10.0 mi ESE 8.1 mph - N/A   Overcast
7:54 PM 53.6 °F 51.8 °F 94% 29.72 in 10.0 mi ESE 6.9 mph - N/A   Overcast
8:15 PM 53.6 °F 51.8 °F 94% 29.73 in 10.0 mi Calm Calm - N/A Rain Light Rain
8:35 PM 53.6 °F 51.8 °F 94% 29.72 in 10.0 mi East 5.8 mph - N/A Rain Light Rain
9:15 PM 51.8 °F 51.8 °F 100% 29.74 in 7.0 mi Calm Calm - N/A   Scattered Clouds
9:35 PM 53.6 °F 51.8 °F 94% 29.74 in 7.0 mi Calm Calm - N/A   Mostly Cloudy
9:55 PM 51.8 °F 51.8 °F 100% 29.75 in 4.0 mi Calm Calm - N/A   Mostly Cloudy
10:15 PM 51.8 °F 50.0 °F 94% 29.75 in 4.0 mi Calm Calm - N/A   Overcast
10:35 PM 51.8 °F 51.8 °F 100% 29.75 in 4.0 mi Calm Calm - N/A   Overcast
11:16 PM 55.4 °F 51.8 °F 88% 29.75 in 10.0 mi West 9.2 mph - N/A   Mostly Cloudy
11:36 PM 55.4 °F 48.2 °F 77% 29.76 in 10.0 mi West 11.5 mph - N/A   Mostly Cloudy
11:56 PM 55.4 °F 46.4 °F 72% 29.76 in 10.0 mi West 9.2 mph - N/A   Mostly Cloudy